Preview of NWS' New Version of Forecast
This preview is not operational and should not be used for support decisions.
Latest weather observations around

Troy, Troy Municipal Airport (KTOI)

Using International System of Units (Switch to English Units)
Date/ Time (CST) Wind (kph) Vis. (km) Weather Sky Cond. Temp (°C) Rel. Humidity Wind Chill (°C) Heat Index (°C) Pressure Precip. (cm)
Air Dwpt 6 hour Altimeter (hPa) Sea level (hPa) 1 hr 3 hr 6 hr
Max Min
Feb 22 06:16 SE 15 4.02 Fog/Mist OVC003 18 18     100%     1029.1        
Feb 22 05:53 SE 11 8.05 Fog/Mist OVC003 18 18     100%     1029.1 1028.6      
Feb 22 04:53 S 5 9.66 Fog/Mist OVC004 18 18     100%     1028.5 1027.9      
Feb 22 04:26 SE 8 11.27 Cloudy OVC004 18 18     100%     1028.1        
Feb 22 04:14 SSE 8 11.27 Cloudy OVC005 18 18     100%     1028.1        
Feb 22 03:53 SSE 5 11.27 Cloudy OVC006 18 18     100%     1027.8 1027.4      
Feb 22 02:53 S 5 11.27 Cloudy OVC006 18 18     100%     1027.8 1027.1      
Feb 22 02:08 SSW 5 9.66 Fog/Mist OVC006 18 18     100%     1027.8        
Feb 22 01:53 SSW 5 11.27 Cloudy OVC005 18 18     100%     1028.1 1027.5      
Feb 22 01:45 SSW 8 9.66 Fog/Mist OVC005 17 17     100%     1028.1        
Feb 22 01:35 Calm 3.22 Fog/Mist OVC005 17 17     100%     1028.1        
Feb 22 01:28 Calm 4.83 Fog/Mist OVC005 17 17     100%     1028.1        
Feb 22 01:24 Calm 3.22 Fog/Mist OVC006 17 17     100%     1028.1        
Feb 22 01:21 Calm 1.61 Fog/Mist BKN006 OVC009 17 17     100%     1028.1        
Feb 22 01:09 Calm 0.8 Fog OVC006 17 17     100%     1028.1        
Feb 22 00:53 Calm 0.4 Fog VV008 17 17     100%     1028.1 1027.5      
Feb 22 00:42 Calm 0.8 Fog VV008 17 17     100%     1028.1        
Feb 22 00:40 Calm 1.61 Fog/Mist VV008 18 17     96%     1028.1        
Feb 22 00:38 Calm 2.41 Fog/Mist FEW008 18 17     96%     1028.1        
Feb 22 00:34 Calm 1.61 Fog/Mist VV008 17 17     100%     1027.8        
Feb 22 00:27 Calm 2.01 Fog/Mist FEW008 17 17     100%     1027.8        
Feb 22 00:25 Calm 2.82 Fog/Mist FEW008 18 17     96%     1027.8        
Feb 21 23:53 W 5 16.09 Clear CLR 18 18     97%     1027.8 1027.4      
Feb 21 22:53 S 5 16.09 Clear CLR 19 18     93%     1028.1 1027.6      
Feb 21 21:53 S 11 16.09 Clear CLR 21 18     84%     1028.1 1027.7      
Feb 21 20:53 SSE 8 16.09 Mostly Clear FEW039 22 18     79%   22 1027.8 1027.2      
Feb 21 19:53 SSW 9 16.09 Partly Cloudy SCT038 22 17     76%   22 1027.4 1027      
Feb 21 18:53 SSW 5 16.09 Mostly Cloudy BKN049 23 17     66%   23 1026.8 1026.2      
Feb 21 17:53 S 13 16.09 Mostly Cloudy SCT047 BKN060 25 16     58%   25 1026.1 1025.5      
Feb 21 16:53 S 17 16.09 Mostly Clear FEW050 FEW060 FEW075 27 17     54%   27 1025.4 1025      
Feb 21 15:53 SSE 21 16.09 Mostly Cloudy FEW060 BKN075 28 17     51%   28 1025.4 1024.8      
Feb 21 14:53 S 17 16.09 Clear CLR 28 16     49%   28 1025.4 1024.9      
Feb 21 13:53 SSE 22 16.09 Partly Cloudy FEW048 SCT065 SCT075 28 17     51%   28 1025.7 1025.4      
Feb 21 12:53 S 22 16.09 Mostly Cloudy FEW035 SCT055 BKN065 28 18     53%   29 1026.4 1026      
Feb 21 12:04 S 15 16.09 Cloudy BKN032 BKN044 OVC065 27 19     62%   28 1027.1        
Feb 21 11:53 SSE 18 16.09 Cloudy BKN029 BKN035 OVC045 26 19     67%   26 1027.4 1027      
Feb 21 11:27 S 9 16.09 Mostly Cloudy BKN026 BKN033 25 19     71%   25 1028.1        
Feb 21 10:53 S 18 16.09 Cloudy FEW017 SCT024 OVC032 24 19     76%   24 1028.5 1028.2      
Feb 21 10:26 SE 11 16.09 Cloudy BKN016 OVC021 23 19     79%   24 1028.8        
Feb 21 09:53 SE 13 16.09 Cloudy OVC012 22 19     84%   23 1028.8 1028.5      
Feb 21 09:33 SSE 13 16.09 Cloudy OVC010 22 19     87%   22 1028.8        
Feb 21 08:53 SE 15 16.09 Cloudy OVC008 22 19     84%   23 1028.5 1028.2      
Feb 21 08:38 SE 17 16.09 Cloudy OVC007 21 19     90%     1028.5        
Feb 21 07:53 SE 15 12.87 Cloudy OVC006 20 19     96%     1028.1 1027.6      
Feb 21 07:44 SSE 17 12.87 Cloudy OVC005 20 19     96%     1027.8        
Feb 21 07:21 SSE 15 12.87 Cloudy OVC006 19 19     100%     1028.1        
Feb 21 07:08 SSE 13 12.87 Cloudy OVC007 19 19     97%     1027.8        
Feb 21 06:53 ESE 15 12.87 Cloudy OVC008 19 19     100%     1027.8 1027.3      
Feb 21 06:30 E 5 9.66 Fog/Mist BKN008 18 18     100%     1027.8        
Feb 21 06:23 E 5 4.83 Fog/Mist FEW006 SCT010 BKN016 18 18     100%     1027.8        
Feb 21 06:11 E 5 6.44 Fog/Mist FEW006 SCT014 18 18     100%     1027.8        
Feb 21 06:04 Calm 4.02 Fog/Mist FEW006 SCT014 17 17     100%     1027.8        
Feb 21 06:02 E 5 2.41 Fog/Mist FEW006 SCT014 17 17     100%     1027.8        
Feb 21 06:00 E 5 1.61 Fog/Mist FEW006 SCT014 17 17     100%     1027.8        
Feb 21 05:53 E 5 1.21 Fog/Mist VV014 17 17     100%     1027.8 1027.3      
Feb 21 05:51 E 5 1.21 Fog/Mist VV014 17 17     100%     1027.8        
Feb 21 05:49 E 5 2.82 Fog/Mist CLR 17 17     100%     1027.8        
Feb 21 04:53 Calm 9.66 Fog/Mist CLR 18 18     100%     1027.1 1026.7      
Feb 21 03:53 E 5 12.87 Mostly Clear FEW032 19 18     96%     1026.8 1026.5      
Feb 21 02:53 SE 8 14.48 Cloudy BKN039 BKN055 OVC070 19 19     97%     1026.8 1026.3      
Feb 21 01:53 SE 8 16.09 Mostly Cloudy SCT055 BKN070 19 18     93%     1026.8 1026.1      
Feb 21 00:53 SE 8 16.09 Cloudy FEW055 OVC075 20 19     93%     1026.8 1026.3      
Feb 20 23:53 SE 9 14.48 Partly Cloudy SCT055 19 19     97%     1026.8 1026.2      
Feb 20 22:53 Calm 16.09 Clear CLR 19 19     97%     1026.4 1026.1      
Feb 20 21:53 SSE 8 16.09 Mostly Clear FEW036 21 19     93%     1026.4 1026      
Feb 20 21:18 SSE 11 16.09 Partly Cloudy FEW027 SCT033 21 19     90%     1026.1        
Feb 20 20:53 SSE 11 16.09 Mostly Cloudy BKN026 BKN040 22 19     87%   22 1026.1 1025.7      
Feb 20 20:48 SSE 11 16.09 Cloudy BKN026 OVC039 22 19     83%   22 1026.1        
Feb 20 19:53 S 9 16.09 Mostly Clear FEW045 22 19     84%   22 1025.7 1025.3      
Feb 20 18:53 S 5 16.09 Mostly Clear FEW038 FEW075 21 19     90%     1025.4 1025.1      
Feb 20 17:53 SSE 9 16.09 Mostly Cloudy FEW041 SCT075 BKN090 22 19     82%   23 1025.1 1024.7     0
Feb 20 16:53 S 13 16.09 Partly Cloudy FEW050 SCT090 25 18     66%   25 1024.4 1024.1      
Feb 20 15:53 SSE 13 16.09 Mostly Cloudy SCT043 SCT060 BKN095 25 19     69%   25 1024.1 1023.8 0    
Feb 20 14:53 S 9 16.09 Mostly Cloudy FEW039 BKN075 BKN095 26 19     67%   26 1024.4 1023.9 0 0  
Feb 20 13:53 11 16.09 Mostly Cloudy SCT029 BKN085 26 19     67%   26 1024.7 1024.3      
Feb 20 12:53 S 11 16.09 Cloudy FEW026 BKN030 OVC075 25 19     69%   25 1025.4 1024.9      
Feb 20 12:19 SSE 11 16.09 Cloudy SCT024 BKN029 OVC075 25 19     69%   25 1025.7        
Feb 20 12:00 SSE 17 16.09 Cloudy SCT022 BKN038 OVC070 24 18     69%   25 1026.1        
Feb 20 11:53 SSE 21 16.09 Mostly Cloudy BKN025 BKN034 BKN070 24 19     71%   25 1026.1 1025.8      
Feb 20 10:53 SE 21 16.09 Cloudy BKN021 BKN030 OVC070 24 18     71%   24 1027.1 1026.6      
Feb 20 10:09 SE 18 16.09 Cloudy BKN016 OVC065 22 18     79%   23 1027.1        
Feb 20 09:53 SE 24 16.09 Cloudy OVC014 22 18     79%   23 1027.1 1026.7      
Feb 20 08:53 SE 22 16.09 Mostly Cloudy BKN010 21 18     84%     1026.8 1026.4      
Feb 20 08:51 SSE 22 16.09 Mostly Cloudy BKN010 21 18     83%     1026.8        
Feb 20 08:17 SE 21 16.09 Mostly Cloudy BKN008 19 18     90%     1026.4        
Feb 20 07:53 SE 18 16.09 Cloudy OVC007 18 17     93%     1026.4 1025.9      
Feb 20 07:37 SE 21 16.09 Cloudy OVC007 18 17     93%     1026.1        
Feb 20 07:28 SE 22 16.09 Mostly Cloudy BKN008 18 17     93%     1026.1        
Feb 20 07:19 SE 17 16.09 Partly Cloudy SCT008 17 16     93%     1026.1        
Feb 20 06:53 SE 17 16.09 Clear CLR 17 16     90%     1026.1 1025.6      
Feb 20 05:53 SE 11 16.09 Clear CLR 17 15     90%     1026.1 1025.5      
Feb 20 04:53 ESE 8 16.09 Clear CLR 16 14     87%     1025.4 1025.1      
Feb 20 03:53 SE 5 16.09 Clear CLR 17 14     84%     1025.1 1024.7      
Feb 20 02:53 ESE 5 14.48 Clear CLR 16 13     86%     1024.7 1024.3      
Feb 20 01:53 Calm 16.09 Clear CLR 15 14     93%     1024.7 1024.3      
Feb 20 00:53 Calm 16.09 Clear CLR 16 14     90%     1024.7 1024.3      
Feb 19 23:53 ESE 8 16.09 Clear CLR 16 14     93%     1024.7 1024.2      
Feb 19 22:53 SE 8 16.09 Clear CLR 17 15     90%     1024.7 1024.4      
Feb 19 21:53 SSE 8 16.09 Clear CLR 20 15     73%     1024.7 1024.5      
Feb 19 20:53 SSE 11 16.09 Cloudy FEW045 OVC060 22 16     66%   22 1025.1 1024.5      
Feb 19 19:53 SSE 11 16.09 Cloudy BKN047 OVC055 23 16     64%   23 1024.4 1024      
Feb 19 18:53 SE 9 16.09 Mostly Cloudy FEW055 BKN075 22 16     70%   22 1023.7 1023.4      
Feb 19 17:53 SE 5 16.09 Partly Cloudy SCT075 23 16     62%   23 1023.4 1023.2      
Feb 19 16:53 SSE 11 16.09 Cloudy OVC075 26 16     54%   26 1023 1022.7      
Feb 19 15:53 S 11 16.09 Mostly Cloudy BKN075 26 16     54%   26 1022.7 1022.3      
Feb 19 14:53 S 21 16.09 Mostly Cloudy SCT050 BKN065 27 16     49%   28 1022.7 1022.4      
Feb 19 13:53 SSE 18 16.09 Mostly Cloudy BKN046 BKN055 27 16     51%   27 1023 1022.5      
Feb 19 12:53 S 22 16.09 Mostly Clear FEW034 26 16     54%   26 1024.1 1023.5      
Feb 19 11:53 S 17 16.09 Partly Cloudy SCT028 24 17     64%   24 1025.4 1025      
Feb 19 11:11 SSE 17 16.09 Partly Cloudy SCT021 23 17     66%   23 1026.1        
Feb 19 10:53 SSE 21 16.09 Mostly Cloudy BKN019 BKN024 22 17     73%   22 1026.4 1025.9      
Feb 19 10:27 S 11 16.09 Cloudy BKN015 OVC020 22 17     76%   22 1026.8        
Feb 19 09:53 SSE 17 16.09 Cloudy OVC011 19 17     87%     1026.8 1026.5      
Feb 19 09:50 S 15 16.09 Cloudy OVC011 19 17     88%     1026.8        
Feb 19 09:22 SSE 15 16.09 Cloudy BKN009 OVC014 19 17     90%     1026.4        
Feb 19 09:10 SSE 9 16.09 Cloudy OVC007 18 18     97%     1026.4        
Feb 19 08:53 SSE 9 8.05 Fog/Mist BKN006 OVC010 18 17     96%     1026.4 1026      
Feb 19 08:43 S 13 9.66 Fog/Mist OVC007 18 17     96%     1026.4        
Feb 19 08:35 SSE 11 8.05 Fog/Mist OVC005 18 17     96%     1026.4        
Feb 19 07:53 Calm 6.44 Fog/Mist OVC004 17 17     97%     1026.1 1025.7      
Feb 19 07:41 Calm 12.87 Cloudy OVC005 17 17     97%     1025.7        
Feb 19 06:53 Calm 16.09 Cloudy BKN006 OVC013 16 14     93%     1025.4 1025.1      
Feb 19 06:24 Calm 14.48 Cloudy FEW009 OVC013 14 14     100%     1025.4        
Jun 12 06:39 5 16.09 Mostly Clear FEW002 22 22     100%   23 1021        
Jun 12 05:53 Calm 16.09 Mostly Clear FEW011 21 21     100%     1020.7 1020.1      
Jun 11 21:53 SSW 5 14.48 Cloudy OVC100 23 21     87%   24 1021 1020.3 0 0  
Jun 11 20:00 Calm 16.09 Cloudy OVC070 24 23     96%   25 1019.7        
Notice The following observation data may not be complete
Jun 11 07:13   16.09 Partly Cloudy SCT016          %              
Jun 10 12:53 ESE 15 16.09 Mostly Cloudy FEW050 BKN075 31 18     46%   31 1018.6 1018      
Jun 10 04:53 Calm 16.09 Clear CLR 17 17     100%     1016.3 1015.8      
Jun 09 15:53   16.09 Clear CLR 30 16     42%   30 1013.6 1013.1      
Jun 08 12:53 9 16.09 Mostly Clear FEW040 27 17     53%   28 1012.9 1012.1      
Jun 08 09:53 8 16.09 Clear CLR 23 17     68%   23 1012.9 1012.4      
Jun 08 07:53 NE 13 16.09 Clear CLR 20 17     84%     1012.5 1012.1      
Jun 08 00:53 Calm 16.09 Clear CLR 20 19     96%     1010.5 1009.8      
Jun 07 10:53 NE 17 16.09 Mostly Cloudy BKN019 BKN024 BKN032 26 21     74%   28 1007.8 1007.2      
Notice The following observation data may not be complete
Jun 06 03:28   12.87 Partly Cloudy FEW002 SCT015          %              
Jun 05 22:53 Calm 16.09 Cloudy SCT024 BKN050 OVC095 22 22     100%   23 1010.5 1010      
Jun 05 16:53 S 13 16.09 Mostly Clear FEW032 27 22     72%   29 1009.2 1008.5      
Jun 05 15:53 SSE 13 16.09 Mostly Clear FEW018 26 23     82%   28 1009.2 1008.5   0  
Jun 05 14:32 S 8 16.09 Mostly Clear FEW007 24 23     94%   25 1010.5   0